Yuma MCAS, AZ

8:40 PM MST on May 23, 2017 (GMT -0700)
Yuma Marine Corps Air Station

Weather History for KNYL - January, 2014

Change the Weather History Date:

Tuesday, January 7, 2014

  Actual Average Record
Temperature  
Mean Temperature 57 °F 58 °F  
Max Temperature 71 °F 69 °F 83 °F (1962)
Min Temperature 43 °F 47 °F 26 °F (1913)
Degree Days  
Heating Degree Days 8 7  
Month to date heating degree days 34 53  
Since 1 July heating degree days 275 357  
Cooling Degree Days 0 0  
Month to date cooling degree days 0 0  
Year to date cooling degree days 0 0  
Growing Degree Days 8 (Base 50)    
Moisture  
Dew Point 12 °F    
Average Humidity 19    
Maximum Humidity 28    
Minimum Humidity 9    
Precipitation  
Precipitation 0.00 in 0.01 in 0.70 in (1993)
Month to date precipitation 0.00 0.11  
Year to date precipitation 0.00 0.11  
Sea Level Pressure  
Sea Level Pressure 30.09 in    
Wind  
Wind Speed 5 mph (NNE)    
Max Wind Speed 13 mph    
Max Gust Speed 15 mph    
Visibility 10 miles    
Events      
T = Trace of Precipitation, MM = Missing Value Source: NWS Daily Summary

Daily Weather History Graph

Daily Weather History Graph

Search for Another Location

Airport or City:

Trip Planner

Search our weather history database for the weather conditions in past years. The results will help you decide how hot, cold, wet, or windy it might be!

Date:

Astronomy

Jan. 07, 2014 Rise Set
Actual Time 7:41 AM MST 5:48 PM MST
Civil Twilight 7:14 AM MST 6:15 PM MST
Nautical Twilight 6:43 AM MST 6:45 PM MST
Astronomical Twilight 6:14 AM MST 7:15 PM MST
Moon 11:57 AM MST (1/7) 12:02 AM MST (1/7)
Length of Visible Light 11h 01m
Length of Day
10h 07m
Waxing Crescent, 46% of the Moon is Illuminated
Jan 7
Waxing Crescent
Jan 7
First Quarter
Jan 15
Full
Jan 23
Last Quarter
Jan 30
New

Hourly Weather History & Observations

Time (MST) Temp. Windchill Dew Point Humidity Pressure Visibility Wind Dir Wind Speed Gust Speed Precip Events Conditions
12:57 AM 45.0 °F - 14.0 °F 29% 30.13 in 10.0 mi Calm Calm - N/A   Clear
1:57 AM 44.1 °F - 14.0 °F 30% 30.13 in 10.0 mi Calm Calm - N/A   Clear
2:57 AM 50.0 °F - 10.0 °F 20% 30.13 in 10.0 mi North 6.9 mph - N/A   Clear
3:57 AM 50.0 °F - 7.0 °F 18% 30.13 in 10.0 mi North 6.9 mph - N/A   Clear
4:57 AM 45.0 °F 42.6 °F 12.0 °F 26% 30.13 in 10.0 mi North 4.6 mph - N/A   Clear
5:57 AM 44.1 °F 41.5 °F 12.9 °F 28% 30.13 in 10.0 mi ENE 4.6 mph - N/A   Clear
6:57 AM 44.1 °F 41.5 °F 14.0 °F 30% 30.12 in 10.0 mi NE 4.6 mph - N/A   Partly Cloudy
7:57 AM 46.0 °F 41.9 °F 10.9 °F 24% 30.13 in 10.0 mi NE 8.1 mph - N/A   Scattered Clouds
8:57 AM 52.0 °F - 8.1 °F 17% 30.14 in 10.0 mi NE 9.2 mph - N/A   Scattered Clouds
9:57 AM 55.9 °F - 12.0 °F 18% 30.15 in 10.0 mi ENE 9.2 mph - N/A   Mostly Cloudy
10:57 AM 60.1 °F - 12.9 °F 16% 30.15 in 10.0 mi NNE 10.4 mph - N/A   Mostly Cloudy
11:57 AM 66.0 °F - 12.0 °F 12% 30.11 in 10.0 mi NNE 9.2 mph - N/A   Mostly Cloudy
12:57 PM 68.0 °F - 9.0 °F 10% 30.08 in 10.0 mi NNE 10.4 mph - N/A   Mostly Cloudy
1:57 PM 69.1 °F - 9.0 °F 10% 30.06 in 10.0 mi NE 8.1 mph - N/A   Mostly Cloudy
2:57 PM 72.9 °F - 10.0 °F 9% 30.04 in 10.0 mi NNE 4.6 mph - N/A   Mostly Cloudy
3:57 PM 69.1 °F - 12.0 °F 11% 30.04 in 10.0 mi NNE 5.8 mph - N/A   Mostly Cloudy
4:57 PM 68.0 °F - 10.0 °F 11% 30.04 in 10.0 mi North 6.9 mph - N/A   Mostly Cloudy
5:57 PM 64.9 °F - 10.9 °F 12% 30.04 in 10.0 mi North 5.8 mph - N/A   Mostly Cloudy
6:57 PM 62.1 °F - 12.0 °F 14% 30.04 in 10.0 mi North 6.9 mph - N/A   Mostly Cloudy
7:57 PM 59.0 °F - 12.0 °F 16% 30.05 in 10.0 mi North 5.8 mph - N/A   Mostly Cloudy
8:57 PM 57.9 °F - 12.9 °F 17% 30.05 in 10.0 mi Calm Calm - N/A   Mostly Cloudy
9:57 PM 55.0 °F - 14.0 °F 20% 30.06 in 10.0 mi Calm Calm - N/A   Mostly Cloudy
10:57 PM 54.0 °F - 19.9 °F 26% 30.06 in 10.0 mi Calm Calm - N/A   Mostly Cloudy
11:57 PM 54.0 °F - 23.0 °F 30% 30.05 in 10.0 mi Calm Calm - N/A   Clear